Ravenna, OH

1:01 PM EST on February 24, 2017 (GMT -0500)
Ravenna

Weather History for KPOV - March, 2014

Change the Weather History Date:

Monday, March 10, 2014

  Actual Average (KCAK) Record (KCAK)
Temperature  
Mean Temperature 44 °F -  
Max Temperature 53 °F 45 °F 73 °F (1973)
Min Temperature 35 °F 26 °F 3 °F (1984)
Degree Days  
Heating Degree Days 21    
Moisture  
Dew Point 31 °F    
Average Humidity 60    
Maximum Humidity 66    
Minimum Humidity 49    
Precipitation  
Precipitation 0.00 in - - ()
Sea Level Pressure  
Sea Level Pressure 29.73 in    
Wind  
Wind Speed 8 mph (SW)    
Max Wind Speed 15 mph    
Max Gust Speed 26 mph    
Visibility 10 miles    
Events Rain    
Averages and records for this station are not official NWS values.
T = Trace of Precipitation, MM = Missing Value Source: NWS Daily Summary

Daily Weather History Graph

Daily Weather History Graph

Search for Another Location

Airport or City:

Trip Planner

Search our weather history database for the weather conditions in past years. The results will help you decide how hot, cold, wet, or windy it might be!

Date:

Astronomy

Mar. 10, 2014 Rise Set
Actual Time 7:44 AM EDT 7:26 PM EDT
Civil Twilight 7:17 AM EDT 7:53 PM EDT
Nautical Twilight 6:45 AM EDT 8:25 PM EDT
Astronomical Twilight 6:13 AM EDT 8:57 PM EDT
Moon 2:06 PM EDT (3/10) 3:58 AM EDT (3/10)
Length of Visible Light 12h 36m
Length of Day
11h 41m
Waxing Gibbous, 70% of the Moon is Illuminated
Mar 10
Waxing Gibbous
Mar 16
Full
Mar 23
Last Quarter
Mar 30
New
Apr 7
First Quarter

Hourly Weather History & Observations

Time (EDT) Temp. Windchill Dew Point Humidity Pressure Visibility Wind Dir Wind Speed Gust Speed Precip Events Conditions
12:14 AM 35.8 °F 29.4 °F 23.9 °F 62% 29.90 in 10.0 mi WSW 8.1 mph - N/A   Clear
12:33 AM 36.0 °F 31.1 °F 24.3 °F 63% 29.89 in 10.0 mi SSW 5.8 mph - N/A   Clear
12:54 AM 35.8 °F 28.3 °F 24.4 °F 63% 29.88 in 10.0 mi SW 10.4 mph - N/A   Clear
1:14 AM 35.8 °F 28.8 °F 24.8 °F 64% 29.86 in 10.0 mi SW 9.2 mph 17.3 mph N/A   Clear
1:33 AM 36.0 °F 29.6 °F 24.8 °F 64% 29.86 in 10.0 mi SW 8.1 mph - N/A   Clear
1:54 AM 36.5 °F 30.3 °F 24.8 °F 63% 29.85 in 10.0 mi SW 8.1 mph 19.6 mph N/A   Clear
2:14 AM 36.7 °F 30.5 °F 24.6 °F 62% 29.84 in 10.0 mi SW 8.1 mph 19.6 mph N/A   Scattered Clouds
2:33 AM 37.0 °F 32.4 °F 24.6 °F 61% 29.83 in 10.0 mi SW 5.8 mph - N/A   Mostly Cloudy
2:54 AM 37.4 °F 32.1 °F 24.6 °F 60% 29.85 in 10.0 mi WSW 6.9 mph - N/A   Mostly Cloudy
3:14 AM 37.4 °F 30.3 °F 24.8 °F 60% 29.85 in 10.0 mi WSW 10.4 mph - N/A   Mostly Cloudy
3:34 AM 37.4 °F 32.1 °F 24.6 °F 60% 29.83 in 10.0 mi WSW 6.9 mph 16.1 mph N/A   Scattered Clouds
3:54 AM 36.9 °F 30.7 °F 24.8 °F 62% 29.83 in 10.0 mi WSW 8.1 mph - N/A   Clear
4:14 AM 36.9 °F 31.4 °F 24.8 °F 62% 29.82 in 10.0 mi WSW 6.9 mph - N/A   Clear
4:34 AM 37.2 °F 33.6 °F 24.8 °F 61% 29.81 in 10.0 mi WSW 4.6 mph - N/A   Scattered Clouds
4:54 AM 36.7 °F 34.1 °F 24.8 °F 62% 29.80 in 10.0 mi SW 3.5 mph - N/A   Scattered Clouds
5:14 AM 36.5 °F 32.7 °F 24.8 °F 63% 29.80 in 10.0 mi SW 4.6 mph - N/A   Overcast
5:33 AM 36.5 °F 33.9 °F 24.8 °F 63% 29.80 in 10.0 mi SW 3.5 mph - N/A   Scattered Clouds
5:54 AM 36.3 °F 33.7 °F 25.2 °F 64% 29.79 in 10.0 mi SW 3.5 mph - N/A   Mostly Cloudy
6:14 AM 36.5 °F 33.9 °F 25.2 °F 64% 29.79 in 10.0 mi SW 3.5 mph - N/A   Mostly Cloudy
6:33 AM 36.3 °F - 25.2 °F 64% 29.79 in 10.0 mi Calm Calm - N/A   Scattered Clouds
6:54 AM 36.7 °F 32.9 °F 25.5 °F 64% 29.79 in 10.0 mi SW 4.6 mph - N/A   Mostly Cloudy
7:14 AM 37.4 °F 34.9 °F 25.7 °F 63% 29.78 in 10.0 mi SW 3.5 mph - N/A   Overcast
7:34 AM 37.4 °F 33.8 °F 26.1 °F 64% 29.79 in 10.0 mi SW 4.6 mph - N/A   Overcast
7:54 AM 37.4 °F 33.8 °F 26.4 °F 65% 29.78 in 10.0 mi SW 4.6 mph - N/A Rain Light Rain
8:14 AM 37.6 °F 33.1 °F 26.6 °F 65% 29.79 in 10.0 mi SW 5.8 mph - N/A   Overcast
8:34 AM 37.6 °F 33.1 °F 27.0 °F 66% 29.79 in 10.0 mi SW 5.8 mph - N/A   Mostly Cloudy
8:54 AM 38.3 °F 33.2 °F 27.5 °F 65% 29.78 in 10.0 mi SW 6.9 mph - N/A   Mostly Cloudy
9:14 AM 38.8 °F 34.6 °F 27.9 °F 65% 29.77 in 10.0 mi SW 5.8 mph - N/A   Scattered Clouds
9:33 AM 39.2 °F 35.0 °F 28.4 °F 65% 29.76 in 10.0 mi SW 5.8 mph - N/A   Clear
9:54 AM 39.6 °F 34.0 °F 28.9 °F 66% 29.75 in 10.0 mi SW 8.1 mph - N/A   Clear
10:14 AM 40.1 °F 33.2 °F 29.3 °F 65% 29.76 in 10.0 mi WSW 11.5 mph 16.1 mph N/A   Clear
10:33 AM 41.9 °F 35.9 °F 30.2 °F 63% 29.77 in 10.0 mi WSW 10.4 mph 17.3 mph N/A   Clear
10:54 AM 41.4 °F 34.7 °F 30.2 °F 65% 29.77 in 10.0 mi West 11.5 mph 19.6 mph N/A   Mostly Cloudy
11:14 AM 42.1 °F 35.7 °F 30.7 °F 64% 29.75 in 10.0 mi WSW 11.5 mph 18.4 mph N/A   Mostly Cloudy
11:33 AM 42.6 °F 36.8 °F 31.3 °F 64% 29.75 in 10.0 mi WSW 10.4 mph 17.3 mph N/A   Overcast
11:54 AM 43.2 °F 37.9 °F 31.3 °F 63% 29.74 in 10.0 mi WSW 9.2 mph 16.1 mph N/A   Overcast
12:14 PM 44.2 °F 39.2 °F 32.0 °F 62% 29.74 in 10.0 mi WSW 9.2 mph - N/A   Mostly Cloudy
12:34 PM 44.8 °F 40.4 °F 32.0 °F 61% 29.73 in 10.0 mi SW 8.1 mph - N/A   Mostly Cloudy
12:54 PM 45.9 °F 42.9 °F 32.2 °F 59% 29.73 in 10.0 mi SW 5.8 mph - N/A   Mostly Cloudy
1:14 PM 46.6 °F - 32.7 °F 59% 29.73 in 10.0 mi SW 6.9 mph - N/A   Scattered Clouds
1:33 PM 47.3 °F - 33.1 °F 58% 29.72 in 10.0 mi SW 9.2 mph 17.3 mph N/A   Scattered Clouds
1:54 PM 47.3 °F - 33.1 °F 58% 29.71 in 10.0 mi SW 8.1 mph 17.3 mph N/A   Scattered Clouds
2:14 PM 48.2 °F - 33.6 °F 57% 29.70 in 10.0 mi SW 11.5 mph 17.3 mph N/A   Clear
2:33 PM 48.4 °F - 34.0 °F 58% 29.68 in 10.0 mi SW 4.6 mph - N/A   Mostly Cloudy
2:54 PM 49.1 °F - 33.6 °F 55% 29.67 in 10.0 mi SW 9.2 mph 16.1 mph N/A   Overcast
3:14 PM 50.0 °F - 34.0 °F 54% 29.66 in 10.0 mi SW 9.2 mph 17.3 mph N/A   Overcast
3:33 PM 50.9 °F - 33.8 °F 52% 29.65 in 10.0 mi SW 10.4 mph 17.3 mph N/A   Scattered Clouds
3:54 PM 52.2 °F - 34.0 °F 50% 29.64 in 10.0 mi WSW 12.7 mph 19.6 mph N/A   Clear
4:14 PM 52.3 °F - 33.8 °F 49% 29.63 in 10.0 mi SSW 12.7 mph 19.6 mph N/A   Clear
4:33 PM 52.7 °F - 33.8 °F 49% 29.63 in 10.0 mi SW 15.0 mph 21.9 mph N/A   Clear
4:54 PM 52.9 °F - 34.2 °F 49% 29.63 in 10.0 mi SW 11.5 mph 26.5 mph N/A   Clear
5:14 PM 53.2 °F - 34.3 °F 49% 29.61 in 10.0 mi SW 12.7 mph 19.6 mph N/A   Clear
5:34 PM 53.2 °F - 34.7 °F 49% 29.61 in 10.0 mi WSW 15.0 mph 20.7 mph N/A   Clear
5:54 PM 52.9 °F - 34.7 °F 50% 29.61 in 10.0 mi WSW 11.5 mph 24.2 mph N/A   Clear
6:14 PM 52.7 °F - 34.9 °F 51% 29.61 in 10.0 mi SW 12.7 mph 20.7 mph N/A   Clear
6:33 PM 52.2 °F - 35.1 °F 52% 29.60 in 10.0 mi WSW 11.5 mph 18.4 mph N/A   Clear
6:54 PM 51.8 °F - 35.2 °F 53% 29.61 in 10.0 mi SW 10.4 mph 20.7 mph N/A   Clear
7:14 PM 51.4 °F - 35.6 °F 55% 29.63 in 10.0 mi WSW 11.5 mph 18.4 mph N/A   Clear
7:33 PM 50.9 °F - 35.8 °F 56% 29.63 in 10.0 mi WSW 11.5 mph 19.6 mph N/A   Clear
7:54 PM 50.4 °F - 36.0 °F 58% 29.63 in 10.0 mi WSW 9.2 mph 16.1 mph N/A   Clear
8:14 PM 50.4 °F - 36.0 °F 58% 29.63 in 10.0 mi WSW 9.2 mph - N/A   Clear
8:34 PM 50.2 °F - 36.1 °F 59% 29.63 in 10.0 mi WSW 10.4 mph 17.3 mph N/A   Clear
8:54 PM 50.2 °F - 36.3 °F 59% 29.64 in 10.0 mi WSW 10.4 mph 16.1 mph N/A   Clear
9:14 PM 50.0 °F - 36.3 °F 59% 29.65 in 10.0 mi West 9.2 mph 16.1 mph N/A   Clear
9:33 PM 49.5 °F - 36.3 °F 61% 29.65 in 10.0 mi WSW 11.5 mph - N/A   Clear
9:54 PM 49.3 °F - 36.1 °F 61% 29.65 in 10.0 mi WSW 11.5 mph 16.1 mph N/A   Clear
10:14 PM 49.3 °F - 36.1 °F 61% 29.66 in 10.0 mi WSW 11.5 mph 16.1 mph N/A   Clear
10:33 PM 48.9 °F - 36.1 °F 61% 29.66 in 10.0 mi WSW 13.8 mph - N/A   Clear
10:54 PM 48.7 °F - 36.3 °F 62% 29.66 in 10.0 mi WSW 11.5 mph 17.3 mph N/A   Clear
11:14 PM 48.9 °F - 36.5 °F 62% 29.66 in 10.0 mi West 15.0 mph 20.7 mph N/A   Clear
11:34 PM 48.6 °F - 36.5 °F 63% 29.66 in 10.0 mi West 13.8 mph 19.6 mph N/A   Clear
11:54 PM 48.6 °F - 36.7 °F 64% 29.66 in 10.0 mi West 15.0 mph 20.7 mph N/A   Clear